Regional Weather Roundup
Issued by NWS

Home | Current Version | Previous Version | Graphics & Text | Print | Product List | Glossary On
Versions: 1 2 3 4 5 6 7 8 9 10 11 12 13 14 15 16 17 18 19 20 21 22 23 24 25 26 27 28 29 30 31 32 33 34 35 36 37 38 39 40 41 42 43 44 45 46 47 48 49 50
000
ASUS44 KMEG 300200
RWRTN
TENNESSEE HOURLY STATE WEATHER ROUNDUP
NATIONAL WEATHER SERVICE MEMPHIS TN
900 PM CDT MON JUN 29 2015

TNZ002-004-019-021-049-052-054-088>092-300300-
WEST TENNESSEE

CITY           SKY/WX    TMP DP  RH WIND       PRES   REMARKS
MEMPHIS INTL   MOCLDY    84  70  62 SW10      29.87R
NWS MEMPHIS      N/A     78 N/A N/A MISG        N/A
JACKSON        PTCLDY    78  73  84 S5        29.87S
DYERSBURG        N/A    N/A N/A N/A MISG        N/A
PARIS          PTCLDY    70  66  88 CALM      29.88R
LEXINGTON      CLEAR     77  72  83 S3        29.88R
$$

TNZ008-025-027-028-033-062-065-066-300300-
NORTH MIDDLE TENNESSEE

CITY           SKY/WX    TMP DP  RH WIND       PRES   REMARKS
NASHVILLE      MOCLDY    79  69  71 VRB3      29.89R THUNDER
CLARKSVILLE    MOCLDY    74  71  91 SE5       29.87S
COOKEVILLE     CLEAR     75  70  83 CALM      29.91R
CROSSVILLE     MOCLDY    73  65  75 VRB3      29.96S
$$

TNZ061-075-076-078-094-096-097-300300-
SOUTH MIDDLE TENNESSEE

CITY           SKY/WX    TMP DP  RH WIND       PRES   REMARKS
FAYETTEVILLE   CLEAR     75  64  69 SW5       29.92S
TULLAHOMA      PTCLDY    75  64  69 CALM      29.93S
WINCHESTER     PTCLDY    79  64  61 SW3       29.93R
COLUMBIA       PTCLDY    73  70  88 SW9       29.89S
SHELBYVILLE    CLEAR     75  70  83 W5        29.92S
$$

TNZ017-018-042-046-047-300300-
NORTHEAST TENNESSEE

CITY           SKY/WX    TMP DP  RH WIND       PRES   REMARKS
TRI CITIES     MOCLDY    75  61  61 SW5       29.96R
ELIZABETHTON   CLOUDY    68  63  83 CALM      29.98R
$$

TNZ012-013-036-069-073-074-300300-
CENTRAL EAST TENNESSEE

CITY           SKY/WX    TMP DP  RH WIND       PRES   REMARKS
KNOXVILLE      MOCLDY    78  64  61 S9        29.93R
OAK RIDGE      MOCLDY    79  64  60 CALM      29.94S
GATLINBURG     CLEAR     75  61  60 CALM      29.94R
$$

TNZ083-085-099-300300-
SOUTHEAST TENNESSEE

CITY           SKY/WX    TMP DP  RH WIND       PRES   REMARKS
CHATTANOOGA    MOCLDY    79  64  60 S6        29.93R
$$

SKY/WX REPORTED AS FAIR MEANS FEW OR NO CLOUDS BELOW
12 THOUSAND FEET.




USA.gov is the U.S. government's official web portal to all federal, state and local government web resources and services.